[[{"header":{"parameterUnit":"m.s-1","parameterCategory":1,"la1":30.2992,"la2":30.254,"lo1":-89.0895,"lo2":-89.0443,"dy":0.0025,"dx":0.0025,"nx":19,"ny":19,"refTime":"2026-03-20T09:00:00:Z","depth":0,"parameterNumber":2,"parameterNumberName":"U-component_of_WINDS"},"data":[0,0,0,5.0537,5.0542,5.077,5.0771,5.1071,5.1074,0,0,0,0,0,0,0,0,0,0,0,5.0474,5.0477,5.0536,5.0542,5.077,5.0771,5.107,5.1074,0,0,0,0,0,0,0,0,0,0,0,5.0473,5.0476,5.0479,5.0543,5.077,5.0771,5.107,5.0895,0,0,0,0,0,0,0,0,0,0,5.0672,5.062,5.0475,5.0479,5.0544,5.077,5.0771,5.0886,5.0906,5.0971,0,5.1031,0,5.1057,5.1094,5.1095,0,0,0,5.0538,5.0604,5.066,5.0479,5.0546,5.0769,5.0666,5.0897,5.0919,5.0997,5.1035,5.1046,5.1062,5.1096,5.1098,5.1484,5.1486,0,0,5.0526,5.0519,5.0645,5.0674,5.064,5.0659,5.0673,5.091,5.0951,5.1036,5.1053,5.1067,5.1098,5.1101,5.1482,5.1485,0,0,0,5.0492,5.051,5.056,5.0662,5.0703,5.0665,5.0682,5.0941,5.0958,5.1056,5.107,5.11,5.1104,5.148,5.1483,5.1571,0,0,0,5.0484,5.049,5.0555,5.0553,5.0699,5.0825,5.0708,5.0941,5.0968,5.1069,5.11,5.1107,5.1478,5.1482,5.1564,5.1613,0,0,0,5.0458,5.0487,5.0522,5.0552,5.065,5.0821,5.0852,5.0947,5.0977,5.1095,5.1108,5.1477,5.1481,5.1558,5.1603,5.1709,0,0,0,5.0428,5.06,5.0523,5.0721,5.0648,5.0874,5.085,5.102,5.1132,5.1102,5.1478,5.1483,5.1556,5.1597,5.1702,5.1795,5.1834,0,0,5.0641,5.0626,5.0743,5.068,5.0918,5.084,5.1091,5.1201,5.1221,5.1395,5.1405,5.1566,5.1602,5.1708,5.2059,5.209,0,0,0,5.0808,5.0891,5.0956,5.1061,5.1148,5.1225,5.1298,5.1338,5.1486,5.1309,5.1635,5.1657,5.1719,5.1764,5.179,5.1841,5.1504,5.1504,5.1503,5.11,5.1112,5.1304,5.1343,5.1445,5.1516,5.1599,5.1665,5.1652,5.1728,5.1779,5.1991,5.2042,5.2062,5.2116,5.1832,5.1832,5.1832,5.1833,5.141,5.1528,5.1501,5.1678,5.1689,5.1838,5.1912,5.1896,5.2035,5.1955,5.201,5.1918,5.2095,5.2143,5.184,5.1838,5.1837,5.1837,5.1836,5.16,5.1658,5.1703,5.1852,5.1967,5.2001,5.2133,5.2141,5.2149,5.2204,5.2255,5.2254,5.225,5.2229,5.2229,5.223,5.2231,5.2231,5.2232,5.1777,5.1825,5.1936,5.2039,5.2105,5.2193,5.2263,5.2329,5.2402,5.2397,5.2397,5.2371,5.2112,5.2044,5.2243,5.2241,5.224,5.2239,5.2238,5.2082,5.2013,5.2184,5.225,5.237,5.248,5.2487,5.2618,5.2673,5.2737,5.27,5.2508,5.2493,5.2472,5.2416,5.2699,5.2699,5.2699,5.27,5.2239,5.2232,5.2405,5.2509,5.2611,5.2634,5.2823,5.2879,5.2926,5.2959,5.292,5.2847,5.2826,5.2823,5.2795,5.2742,5.3102,5.3103,5.3103,5.2425,5.2427,5.2588,5.2631,5.2724,5.2804,5.2981,5.3099,5.3139,5.3119,5.2985,5.2968,5.285,5.2812,5.2787,5.2743,5.2647,0,0]},{"header":{"parameterUnit":"m.s-1","parameterCategory":1,"la1":30.2992,"la2":30.254,"lo1":-89.0895,"lo2":-89.0443,"dy":0.0025,"dx":0.0025,"nx":19,"ny":19,"refTime":"2026-03-20T09:00:00:Z","depth":0,"parameterNumber":3,"parameterNumberName":"V-component_of_WINDS"},"data":[0,0,0,2.6075,2.6078,2.6185,2.6185,2.6324,2.6325,0,0,0,0,0,0,0,0,0,0,0,2.6047,2.6048,2.6075,2.6078,2.6185,2.6185,2.6324,2.6325,0,0,0,0,0,0,0,0,0,0,0,2.6047,2.6048,2.605,2.6078,2.6185,2.6185,2.6324,2.6242,0,0,0,0,0,0,0,0,0,0,2.6137,2.6116,2.6048,2.605,2.6079,2.6185,2.6185,2.6238,2.6247,2.6277,0,2.6308,0,2.6319,2.6335,2.6336,0,0,0,2.6075,2.6108,2.6134,2.605,2.608,2.6184,2.6136,2.6243,2.6253,2.629,2.631,2.6315,2.6321,2.6336,2.6337,2.6528,2.6529,0,0,2.6069,2.6068,2.6127,2.6141,2.6127,2.6132,2.6139,2.6249,2.627,2.631,2.6318,2.6323,2.6337,2.6338,2.6527,2.6528,0,0,0,2.6054,2.6064,2.6087,2.6135,2.6154,2.6135,2.6143,2.6265,2.6273,2.6319,2.6325,2.6338,2.634,2.6526,2.6527,2.6579,0,0,0,2.605,2.6056,2.6085,2.6085,2.6152,2.6211,2.6157,2.6265,2.6277,2.6324,2.6338,2.6341,2.6524,2.6526,2.6575,2.6603,0,0,0,2.6039,2.6054,2.6071,2.6085,2.6131,2.621,2.6223,2.6268,2.6281,2.6336,2.6341,2.6524,2.6526,2.6571,2.6597,2.6653,0,0,0,2.6027,2.6115,2.6072,2.6173,2.613,2.6241,2.6223,2.6305,2.6358,2.6339,2.6525,2.6527,2.657,2.6594,2.6649,2.67,2.6721,0,0,2.6138,2.6129,2.6188,2.6152,2.6271,2.6225,2.635,2.6398,2.6403,2.6485,2.649,2.6576,2.6597,2.6652,2.6839,2.6855,0,0,0,2.6223,2.6266,2.6297,2.6348,2.6388,2.6423,2.6452,2.647,2.654,2.6446,2.6611,2.6623,2.6656,2.668,2.6694,2.6721,2.6538,2.6538,2.6538,2.638,2.6382,2.648,2.6494,2.6544,2.6572,2.6612,2.664,2.6627,2.6666,2.669,2.6804,2.6832,2.6843,2.6871,2.6717,2.6717,2.6717,2.6717,2.6544,2.6604,2.6584,2.6673,2.6673,2.6746,2.6776,2.6764,2.6831,2.6785,2.6814,2.6765,2.6861,2.6886,2.6721,2.6721,2.672,2.672,2.6719,2.6648,2.6677,2.6697,2.6769,2.6824,2.6835,2.69,2.6897,2.6895,2.6924,2.6949,2.6948,2.6946,2.6936,2.6936,2.6936,2.6937,2.6937,2.6937,2.6748,2.6768,2.6825,2.6873,2.6904,2.6945,2.6973,2.7003,2.7035,2.7028,2.7028,2.7011,2.687,2.6835,2.6943,2.6942,2.6941,2.6941,2.694,2.6914,2.6875,2.6962,2.6994,2.7048,2.7102,2.7098,2.7159,2.7183,2.7215,2.7191,2.7087,2.7077,2.7066,2.7037,2.7191,2.7191,2.7191,2.7191,2.7001,2.6996,2.7083,2.7133,2.7182,2.7186,2.7281,2.7302,2.7318,2.7333,2.731,2.727,2.7259,2.7256,2.724,2.7213,2.7409,2.7409,2.7409,2.7103,2.7102,2.7185,2.7201,2.7243,2.7279,2.7368,2.7424,2.7434,2.7418,2.7344,2.7335,2.7271,2.7251,2.7234,2.721,2.716,0,0]}]]